Flag for Chile Weather past 2 weeks in Easter Island, Chile

Now
66 °F

Passing clouds.


Feels Like: 66 °F
Forecast: 66 / 79 °F
Wind: 3 mph from East

Location: Isla De Pascua

Current Time: Feb 28, 2015 at 12:28:25 AM

Latest Report: Feb 28, 2015 at 12:00 AM


Visibility: N/A

Pressure: 30.15 "Hg

Humidity: 88%

Dew point: 63 °F

Location of Easter IslandLocation

Historic Weather in Easter Island — Graph

°F

Easter Island temperature yesterday

Maximum temperature yesterday: 81 °F (at 4:00 PM)
Minimum temperature yesterday: 64 °F (at 7:00 AM)
Average temperature yesterday: 72 °F

Past Weeks' High & Low Weather Summary

 TemperatureHumidityPressure
High82 °F (Feb 14, 2:00 PM)100% (Feb 16, 2:00 AM)30.39 "Hg (Feb 16, 2:00 AM)
Low37 °F (Feb 17, 1:00 PM)53% (Feb 19, 4:00 PM)29.24 "Hg (Feb 17, 1:00 PM)
Average75 °F74%30.20 "Hg
* Reported Feb 12 11:00 PM — Feb 27 11:00 PM, Easter Island, Weather by CustomWeather, © 2015

Note: Actual official high and low records may vary slightly from our data, if they occured in-between our weather recording intervals... More about our weather records

Advertising

Easter Island weather history for previous 24 hours

 ConditionsComfort  
Time TempWeatherWind HumidityBarometerVisibility
11:00 PM
Fri, Feb 27
66 °FPassing clouds.No wind88%30.12 "HgN/A
10:00 PM68 °FPassing clouds.2 mph88%30.12 "HgN/A
9:00 PM72 °FScattered clouds.No wind83%30.09 "HgN/A
8:00 PM72 °FScattered clouds.2 mph83%30.09 "HgN/A
7:00 PM75 °FBroken clouds.5 mph65%30.09 "HgN/A
6:00 PM75 °FSprinkles. Broken clouds.8 mph74%30.09 "HgN/A
5:00 PM79 °FSprinkles. Scattered clouds.12 mph65%30.12 "HgN/A
4:00 PM81 °FScattered clouds.13 mph58%30.12 "HgN/A
3:00 PM79 °FScattered clouds.13 mph58%30.12 "HgN/A
2:00 PM79 °FScattered clouds.10 mph61%30.15 "HgN/A
1:00 PM79 °FScattered clouds.13 mph58%30.18 "HgN/A
12:00 PM77 °FScattered clouds.10 mph65%30.18 "HgN/A
11:00 AM77 °FScattered clouds.10 mph65%30.18 "HgN/A
10:00 AM75 °FScattered clouds.8 mph69%30.18 "HgN/A
9:00 AM68 °FPassing clouds.2 mph88%30.18 "HgN/A
8:00 AM66 °FPassing clouds.3 mph88%30.15 "HgN/A
7:00 AM64 °FPassing clouds.3 mph88%30.15 "HgN/A
6:00 AM68 °FPassing clouds.3 mph78%30.15 "HgN/A
5:00 AM68 °FPassing clouds.3 mph83%30.18 "HgN/A
4:00 AM68 °FPassing clouds.5 mph83%30.18 "HgN/A
3:00 AM70 °FPassing clouds.2 mph78%30.21 "HgN/A
2:00 AM70 °FPassing clouds.3 mph78%30.21 "HgN/A
1:00 AM70 °FPassing clouds.2 mph78%30.24 "HgN/A
12:00 AM70 °FPassing clouds.3 mph83%30.24 "HgN/A
Weather by CustomWeather, © 2015

See weather overviewHow to use our weather pages